• în România
  • Lista ţărilor
  • Pe 7 zile
  • Temperatura apei
  • Hartă satelitară
  • Meteo pe hartă
  • Widget-uri
  • user-avatar
    Intrare

    Meteo pe oră la Sunny Beach

    Astăzi, 21 Iunie, Joi

    Timp Temperatura Precipitaţii Vânt Presiune Umiditate
    00:00 +18°C° 0 mm 2 m/s 737 mmHg 69%
    01:00 +18°C° 0 mm 2 m/s 737 mmHg 69%
    02:00 +18°C° 0 mm 2 m/s 737 mmHg 67%
    03:00 +18°C° 0 mm 2 m/s 737 mmHg 66%
    04:00 +17°C° 0 mm 2 m/s 737 mmHg 66%
    05:00 +17°C° 0 mm 2 m/s 737 mmHg 65%
    06:00 +20°C° 0 mm 2 m/s 737 mmHg 59%
    07:00 +22°C° 0 mm 3 m/s 737 mmHg 53%
    08:00 +26°C° 0 mm 3 m/s 737 mmHg 45%
    09:00 +27°C° 0 mm 3 m/s 737 mmHg 41%
    10:00 +29°C° 0 mm 4 m/s 737 mmHg 36%
    11:00 +30°C° 0 mm 4 m/s 736 mmHg 31%
    12:00 +32°C° 0 mm 4 m/s 736 mmHg 31%
    13:00 +32°C° 0 mm 4 m/s 736 mmHg 30%
    14:00 +33°C° 0 mm 4 m/s 736 mmHg 33%
    15:00 +32°C° 0 mm 4 m/s 735 mmHg 35%
    16:00 +32°C° 0 mm 4 m/s 735 mmHg 38%
    17:00 +32°C° 0 mm 4 m/s 735 mmHg 40%
    18:00 +28°C° 0 mm 3 m/s 735 mmHg 50%
    19:00 +26°C° 0 mm 3 m/s 734 mmHg 59%
    20:00 +24°C° 0 mm 2 m/s 734 mmHg 69%
    21:00 +23°C° 0,1 mm 2 m/s 734 mmHg 74%
    22:00 +21°C° 0,1 mm 2 m/s 734 mmHg 79%
    23:00 +21°C° 0,1 mm 1 m/s 734 mmHg 84%

    Mâine, 22 Iunie, Vineri

    Timp Temperatura Precipitaţii Vânt Presiune Umiditate
    00:00 +20°C° 0 mm 1 m/s 734 mmHg 85%
    01:00 +20°C° 0 mm 1 m/s 734 mmHg 85%
    02:00 +20°C° 0 mm 1 m/s 734 mmHg 86%
    03:00 +20°C° 0 mm 1 m/s 733 mmHg 86%
    04:00 +20°C° 0 mm 1 m/s 733 mmHg 85%
    05:00 +20°C° 0 mm 1 m/s 733 mmHg 84%
    06:00 +22°C° 0 mm 1 m/s 733 mmHg 76%
    07:00 +24°C° 0 mm 1 m/s 733 mmHg 68%
    08:00 +26°C° 0 mm 1 m/s 733 mmHg 59%
    09:00 +28°C° 0,2 mm 1 m/s 733 mmHg 52%
    10:00 +30°C° 0,2 mm 1 m/s 733 mmHg 46%
    11:00 +32°C° 0,2 mm 1 m/s 733 mmHg 39%
    12:00 +32°C° 0 mm 1 m/s 733 mmHg 39%
    13:00 +32°C° 0 mm 2 m/s 733 mmHg 38%
    14:00 +32°C° 0 mm 2 m/s 732 mmHg 38%
    15:00 +31°C° 0 mm 2 m/s 732 mmHg 40%
    16:00 +30°C° 0 mm 2 m/s 732 mmHg 42%
    17:00 +29°C° 0 mm 2 m/s 731 mmHg 44%
    18:00 +28°C° 0 mm 2 m/s 731 mmHg 48%
    19:00 +26°C° 0 mm 3 m/s 731 mmHg 53%
    20:00 +25°C° 0 mm 3 m/s 731 mmHg 57%
    21:00 +24°C° 0,4 mm 3 m/s 731 mmHg 64%
    22:00 +23°C° 0,4 mm 2 m/s 732 mmHg 70%
    23:00 +21°C° 0,4 mm 2 m/s 732 mmHg 77%

    Poimâine, 23 Iunie, Sâmbătă

    Timp Temperatura Precipitaţii Vânt Presiune Umiditate
    00:00 +20°C° 0,3 mm 3 m/s 732 mmHg 80%
    01:00 +19°C° 0,3 mm 4 m/s 732 mmHg 82%
    02:00 +19°C° 0,3 mm 5 m/s 732 mmHg 85%
    03:00 +17°C° 0,4 mm 5 m/s 732 mmHg 85%
    04:00 +16°C° 0,4 mm 5 m/s 732 mmHg 85%
    05:00 +16°C° 0,4 mm 5 m/s 732 mmHg 86%
    06:00 +16°C° 0,1 mm 5 m/s 733 mmHg 79%
    07:00 +17°C° 0,1 mm 5 m/s 733 mmHg 72%
    08:00 +19°C° 0,1 mm 6 m/s 734 mmHg 64%
    09:00 +19°C° 0,2 mm 6 m/s 734 mmHg 64%
    10:00 +20°C° 0,2 mm 6 m/s 735 mmHg 64%
    11:00 +20°C° 0,2 mm 5 m/s 735 mmHg 63%
    12:00 +20°C° 0,1 mm 5 m/s 735 mmHg 62%
    13:00 +19°C° 0,1 mm 5 m/s 735 mmHg 61%
    14:00 +19°C° 0,1 mm 5 m/s 735 mmHg 60%
    15:00 +20°C° 0 mm 5 m/s 735 mmHg 56%
    16:00 +20°C° 0 mm 5 m/s 735 mmHg 53%
    17:00 +21°C° 0 mm 5 m/s 735 mmHg 49%
    18:00 +20°C° 0 mm 4 m/s 735 mmHg 53%
    19:00 +18°C° 0 mm 4 m/s 736 mmHg 57%
    20:00 +17°C° 0 mm 3 m/s 736 mmHg 61%
    21:00 +16°C° 0 mm 3 m/s 736 mmHg 64%
    22:00 +16°C° 0 mm 2 m/s 736 mmHg 68%
    23:00 +15°C° 0 mm 2 m/s 737 mmHg 71%

    24 Iunie, Duminică

    Timp Temperatura Precipitaţii Vânt Presiune Umiditate
    00:00 +15°C° 0 mm 2 m/s 737 mmHg 73%
    01:00 +14°C° 0 mm 2 m/s 737 mmHg 75%
    02:00 +14°C° 0 mm 2 m/s 737 mmHg 77%
    03:00 +13°C° 0 mm 2 m/s 736 mmHg 77%
    04:00 +13°C° 0 mm 2 m/s 736 mmHg 77%
    05:00 +12°C° 0 mm 3 m/s 736 mmHg 77%
    06:00 +14°C° 0 mm 3 m/s 737 mmHg 70%
    07:00 +17°C° 0 mm 3 m/s 737 mmHg 62%
    08:00 +19°C° 0 mm 3 m/s 737 mmHg 55%
    09:00 +21°C° 0 mm 3 m/s 737 mmHg 50%
    10:00 +22°C° 0 mm 3 m/s 737 mmHg 45%
    11:00 +25°C° 0 mm 3 m/s 737 mmHg 41%
    12:00 +25°C° 0 mm 3 m/s 737 mmHg 40%
    13:00 +26°C° 0 mm 3 m/s 737 mmHg 39%
    14:00 +26°C° 0 mm 3 m/s 737 mmHg 38%
    15:00 +26°C° 0 mm 4 m/s 737 mmHg 41%
    16:00 +25°C° 0 mm 4 m/s 737 mmHg 44%
    17:00 +25°C° 0 mm 4 m/s 736 mmHg 46%
    18:00 +22°C° 0 mm 4 m/s 736 mmHg 55%
    19:00 +20°C° 0 mm 4 m/s 737 mmHg 63%
    20:00 +18°C° 0 mm 4 m/s 737 mmHg 72%
    21:00 +17°C° 0 mm 3 m/s 737 mmHg 75%
    22:00 +16°C° 0 mm 3 m/s 737 mmHg 79%
    23:00 +14°C° 0 mm 3 m/s 737 mmHg 82%

    25 Iunie, Luni

    Timp Temperatura Precipitaţii Vânt Presiune Umiditate
    00:00 +15°C° 0 mm 2 m/s 737 mmHg 83%
    01:00 +15°C° 0 mm 2 m/s 737 mmHg 83%
    02:00 +15°C° 0 mm 2 m/s 737 mmHg 84%
    03:00 +15°C° 0 mm 2 m/s 736 mmHg 84%
    04:00 +15°C° 0 mm 2 m/s 736 mmHg 85%
    05:00 +14°C° 0 mm 2 m/s 736 mmHg 86%
    06:00 +17°C° 0 mm 3 m/s 736 mmHg 76%
    07:00 +19°C° 0 mm 4 m/s 737 mmHg 66%
    08:00 +21°C° 0 mm 5 m/s 737 mmHg 57%
    09:00 +23°C° 0 mm 5 m/s 737 mmHg 52%
    10:00 +24°C° 0 mm 6 m/s 737 mmHg 47%
    11:00 +26°C° 0 mm 6 m/s 737 mmHg 42%
    12:00 +26°C° 0 mm 6 m/s 736 mmHg 41%
    13:00 +27°C° 0 mm 7 m/s 736 mmHg 41%
    14:00 +27°C° 0 mm 7 m/s 736 mmHg 40%
    15:00 +26°C° 0 mm 7 m/s 736 mmHg 42%
    16:00 +24°C° 0 mm 7 m/s 735 mmHg 45%
    17:00 +24°C° 0 mm 7 m/s 735 mmHg 47%
    18:00 +22°C° 0 mm 6 m/s 735 mmHg 55%
    19:00 +21°C° 0 mm 5 m/s 735 mmHg 62%
    20:00 +20°C° 0 mm 5 m/s 735 mmHg 70%
    21:00 +19°C° 0 mm 5 m/s 735 mmHg 75%
    22:00 +19°C° 0 mm 5 m/s 735 mmHg 80%
    23:00 +18°C° 0 mm 4 m/s 735 mmHg 85%

    26 Iunie, Marţi

    Timp Temperatura Precipitaţii Vânt Presiune Umiditate
    00:00 +17°C° 0 mm 5 m/s 734 mmHg 85%
    01:00 +17°C° 0 mm 5 m/s 734 mmHg 86%
    02:00 +17°C° 0 mm 5 m/s 734 mmHg 87%
    03:00 +19°C° 0 mm 5 m/s 733 mmHg 86%
    04:00 +19°C° 0 mm 5 m/s 733 mmHg 85%
    05:00 +19°C° 0 mm 5 m/s 733 mmHg 84%
    06:00 +20°C° 0,1 mm 6 m/s 732 mmHg 81%
    07:00 +21°C° 0,1 mm 6 m/s 732 mmHg 78%
    08:00 +22°C° 0,1 mm 7 m/s 732 mmHg 75%
    09:00 +23°C° 0,5 mm 7 m/s 732 mmHg 72%
    10:00 +23°C° 0,5 mm 7 m/s 732 mmHg 69%
    11:00 +24°C° 0,5 mm 7 m/s 732 mmHg 66%
    12:00 +23°C° 2,8 mm 7 m/s 732 mmHg 71%
    13:00 +22°C° 2,8 mm 6 m/s 731 mmHg 77%
    14:00 +22°C° 2,8 mm 6 m/s 731 mmHg 82%
    15:00 +21°C° 6,1 mm 6 m/s 731 mmHg 84%
    16:00 +21°C° 6,1 mm 5 m/s 731 mmHg 85%
    17:00 +21°C° 6,1 mm 5 m/s 731 mmHg 86%
    18:00 +20°C° 2,4 mm 4 m/s 731 mmHg 89%
    19:00 +20°C° 2,4 mm 4 m/s 730 mmHg 91%
    20:00 +19°C° 2,4 mm 3 m/s 730 mmHg 94%
    21:00 +19°C° 0,4 mm 3 m/s 730 mmHg 94%
    22:00 +18°C° 0,4 mm 2 m/s 730 mmHg 95%
    23:00 +18°C° 0,4 mm 2 m/s 730 mmHg 96%
    Arată mai mult